SCD 1 1 22490U 93009B 26228.63629181 .00000328 00000+0 38920-4 0 9992 2 22490 24.9681 194.3335 0042110 58.0508 102.3736 14.46139983769878 TECHSAT 1B (GO-32) 1 25397U 98043D 26228.40289753 .00000012 00000+0 25566-4 0 9998 2 25397 99.0119 222.6936 0002212 64.5653 295.5753 14.24438287459909 SCD 2 1 25504U 98060A 26228.24805043 .00000290 00000+0 30338-4 0 9996 2 25504 24.9958 61.7582 0016881 38.3780 122.2786 14.45543753469027 DLR-TUBSAT 1 25757U 99029B 26228.43442347 .00000008 00000+0 13977-4 0 9994 2 25757 98.6741 225.9338 0014497 162.4695 197.7003 14.52439197441992 TERRA 1 25994U 99068A 26228.64088752 .00000175 00000+0 44493-4 0 9991 2 25994 97.9412 275.7769 0003326 59.5026 92.8327 14.61143331418435 MAROC-TUBSAT 1 27004U 01056D 26228.45325569 -.00000043 00000+0 46120-5 0 9999 2 27004 99.8124 46.4616 0019687 351.0647 38.1614 13.70264609234440 AQUA 1 27424U 02022A 26228.61654895 .00000375 00000+0 84448-4 0 9995 2 27424 98.4337 199.1247 0001783 90.6173 329.4828 14.62166264292101 SHIYAN-1 (SY-1) 1 28220U 04012A 26228.50262313 .00010264 00000+0 30312-3 0 9997 2 28220 97.8656 310.5470 0006325 153.5018 206.6548 15.35159267220342 AURA 1 28376U 04026A 26228.58156472 .00000379 00000+0 86318-4 0 9994 2 28376 98.3463 185.5521 0001705 85.5574 274.5821 14.61405412175038 IRS-P5 (CARTOSAT-1) 1 28649U 05017A 26228.33886709 .00000826 00000+0 88459-4 0 9999 2 28649 97.5304 248.6771 0001263 129.9268 230.2063 14.91181847152786 SINAH 1 1 28893U 05043D 26228.60200939 .00000143 00000+0 36594-4 0 9999 2 28893 98.2940 3.3058 0015750 87.8022 272.4983 14.64193377109367 RESURS-DK 1 1 29228U 06021A 26228.58164102 .00001097 00000+0 67357-4 0 9997 2 29228 69.9312 183.1905 0006391 241.2402 118.8123 15.13416354111714 ARIRANG-2 (KOMPSAT-2) 1 29268U 06031A 26228.62116439 -.00000045 00000+0 -24734-7 0 9996 2 29268 97.8326 50.1532 0013054 239.6890 211.3431 14.64689669 70326 LAPAN-TUBSAT 1 29709U 07001A 26228.58802093 .00000075 00000+0 15152-4 0 9999 2 29709 98.1377 229.1870 0012202 356.5225 3.5903 14.86003410 60124 HAIYANG-1B 1 31113U 07010A 26228.41567250 .00000039 00000+0 30750-4 0 9997 2 31113 98.3556 207.9412 0014173 27.8437 332.3502 14.31039790 9250 COSMO-SKYMED 1 1 31598U 07023A 26228.61740097 .00001868 00000+0 16612-3 0 9993 2 31598 97.8848 60.9921 0001818 95.3758 264.7671 14.97339718 38831 TERRASAR-X 1 31698U 07026A 26222.53307678 .00000090 00000+0 74644-5 0 9993 2 31698 97.4474 229.4688 0001596 90.5512 269.5906 15.19145371 61478 WORLDVIEW-1 (WV-1) 1 32060U 07041A 26228.61551909 .00003861 00000+0 16077-3 0 9990 2 32060 97.3840 347.5016 0001743 113.7231 246.4189 15.24328961 52083 YAOGAN-3 1 32289U 07055A 26228.59844448 .00000509 00000+0 57142-4 0 9993 2 32289 97.8132 257.8806 0001467 88.6367 271.5019 14.90976495 14877 COSMO-SKYMED 2 1 32376U 07059A 26228.58297677 .00000168 00000+0 27644-4 0 9994 2 32376 97.8908 51.3137 0001498 90.4755 269.6630 14.82157294 10956 RADARSAT-2 1 32382U 07061A 26228.56262263 .00000165 00000+0 80734-4 0 9991 2 32382 98.5800 234.6384 0001280 82.1388 277.9939 14.29982024974581 CARTOSAT-2A 1 32783U 08021A 26228.58600542 .00000424 00000+0 63660-4 0 9998 2 32783 97.7587 275.2213 0010258 277.2483 82.7562 14.79303669987731 HUANJING 1A (HJ-1A) 1 33320U 08041A 26228.64601794 .00000749 00000+0 95762-4 0 9993 2 33320 97.6735 212.1673 0017689 303.4807 56.4716 14.84110497967378 HUANJING 1B (HJ-1B) 1 33321U 08041B 26228.64299170 .00000291 00000+0 41435-4 0 9995 2 33321 97.6569 215.1509 0036118 347.6388 12.3937 14.83416318967373 GEOEYE 1 1 33331U 08042A 26228.61134902 .00000200 00000+0 46611-4 0 9996 2 33331 98.1299 301.8220 0003729 212.6491 147.4482 14.64671419958998 THEOS 1 33396U 08049A 26228.63115427 .00000430 00000+0 22156-3 0 9999 2 33396 98.5524 283.9386 0001198 92.4866 267.6449 14.20141522926548 COSMO-SKYMED 3 1 33412U 08054A 26228.62720733 .00002411 00000+0 16373-3 0 9990 2 33412 97.8199 88.1922 0016897 63.3898 296.9058 15.07278522966049 YAOGAN-4 1 33446U 08061A 26228.54419100 .00000479 00000+0 65090-4 0 9992 2 33446 97.9305 161.6136 0012983 230.6098 129.3967 14.83299277954614 GOSAT (IBUKI) 1 33492U 09002A 26228.54778395 .00000325 00000+0 65744-4 0 9999 2 33492 98.0934 338.8858 0001291 107.7625 252.3721 14.67537500940317 DEIMOS-1 1 35681U 09041A 26228.48341375 .00000553 00000+0 88683-4 0 9991 2 35681 97.7480 23.1243 0001986 44.8323 315.3047 14.75290888915777 DUBAISAT-1 1 35682U 09041B 26228.32193710 .00000463 00000+0 76047-4 0 9994 2 35682 98.0129 0.9496 0009267 233.0578 126.9782 14.75208749913965 OCEANSAT-2 1 35931U 09051A 26228.60519307 .00000077 00000+0 77960-4 0 9993 2 35931 98.2393 209.4335 0017857 65.0031 295.2988 13.99672670887787 WORLDVIEW-2 (WV-2) 1 35946U 09055A 26228.63374385 .00000050 00000+0 30961-4 0 9992 2 35946 98.4757 301.2563 0005223 53.2148 306.9517 14.37913903884331 SMOS 1 36036U 09059A 26228.58200626 .00000154 00000+0 63070-4 0 9999 2 36036 98.4439 55.0353 0001421 93.8779 266.2572 14.39751040882146 YAOGAN-7 1 36110U 09069A 26228.27259056 .00000216 00000+0 37025-4 0 9990 2 36110 97.9976 113.7432 0023902 202.5065 157.5099 14.78057942898500 TANDEM-X 1 36605U 10030A 26222.46720890 .00000080 00000+0 70097-5 0 9999 2 36605 97.4473 229.4058 0001910 89.3837 270.7616 15.19145371894888 CARTOSAT-2B 1 36795U 10035A 26228.56637022 .00000591 00000+0 87790-4 0 9999 2 36795 97.9906 278.7156 0011430 3.5282 356.6007 14.78644704868775 YAOGAN-10 1 36834U 10038A 26228.65539922 .00001325 00000+0 15976-3 0 9998 2 36834 97.8963 251.5799 0001473 85.5887 58.9182 14.85509143866184 COSMO-SKYMED 4 1 37216U 10060A 26228.59564297 .00000129 00000+0 22766-4 0 9991 2 37216 97.8903 51.3278 0001433 83.2272 276.9105 14.82156607853510 RESOURCESAT-2 1 37387U 11015A 26228.61826065 .00000004 00000+0 21918-4 0 9998 2 37387 98.7601 295.6288 0012447 84.8064 275.4534 14.21604932794764 HAIYANG-2A 1 37781U 11043A 26228.58121178 -.00000169 00000+0 -13737-3 0 9999 2 37781 99.3424 229.8196 0001616 152.2906 207.8328 13.72223474754949 RASAT 1 37791U 11044D 26228.63693877 .00000329 00000+0 65500-4 0 9999 2 37791 98.0574 319.1112 0020741 4.7488 103.4722 14.68215884802056 SRMSAT 1 37841U 11058D 26228.66132384 .00000335 00000+0 37897-4 0 9999 2 37841 19.9727 53.4249 0011725 149.1389 278.0045 14.11586534766371 PLEIADES 1A 1 38012U 11076F 26228.65104093 .00000325 00000+0 79681-4 0 9991 2 38012 98.1944 302.9312 0001100 74.3524 84.5746 14.58561600780801 ZIYUAN 1-02C (ZY 1-02C) 1 38038U 11079A 26228.62028218 .00000476 00000+0 17068-3 0 9990 2 38038 98.4030 294.6547 0007467 120.8968 39.2440 14.38256866767891 ARIRANG-3 (KOMPSAT-3) 1 38338U 12025B 26228.59274416 .00000198 00000+0 48591-4 0 9991 2 38338 98.1225 185.0268 0004072 292.3881 67.6888 14.62251316760175 EXACTVIEW-1 (ADS-1B) 1 38709U 12039C 26228.62590175 .00000045 00000+0 39106-4 0 9998 2 38709 98.9838 347.3985 0010783 3.3690 356.7559 14.24999289731315 SPOT 6 1 38755U 12047A 26228.63633127 .00000386 00000+0 92879-4 0 9998 2 38755 98.2077 295.2243 0001409 98.7541 261.3818 14.58553234741863 PLEIADES 1B 1 39019U 12068A 26228.58642594 .00000375 00000+0 90459-4 0 9997 2 39019 98.1915 302.7948 0001087 81.1889 278.9434 14.58549179729650 GOKTURK 2 1 39030U 12073A 26228.56892524 .00000199 00000+0 36138-4 0 9992 2 39030 97.6798 62.9715 0001907 99.5363 260.6063 14.75591173733419 LANDSAT 8 1 39084U 13008A 26228.52294578 .00000151 00000+0 43585-4 0 9993 2 39084 98.2260 297.9283 0001283 92.9064 267.2281 14.57100466706686 SARAL 1 39086U 13009A 26228.58279341 .00000019 00000+0 23073-4 0 9996 2 39086 98.5567 54.3908 0003002 102.3838 257.7682 14.32901864704250 GAOFEN-1 1 39150U 13018A 26228.64717882 .00000823 00000+0 12499-3 0 9994 2 39150 97.9058 299.4737 0018407 72.5794 287.7427 14.76550040717164 VNREDSAT 1 1 39160U 13021B 26228.60936156 .00000568 00000+0 11513-3 0 9994 2 39160 97.9033 279.6905 0001608 78.5482 281.5902 14.64723733709136 ARIRANG-5 (KOMPSAT-5) 1 39227U 13042A 26228.62235878 -.00000169 00000+0 -77266-5 0 9994 2 39227 97.6205 54.4778 0002057 309.2744 50.8300 15.04480295712949 SKYSAT-A 1 39418U 13066C 26228.36991563 .00001715 00000+0 99456-4 0 9993 2 39418 97.3774 275.8456 0022972 105.1393 255.2382 15.13263251697586 DUBAISAT-2 1 39419U 13066D 26228.62351043 .00001795 00000+0 11250-3 0 9999 2 39419 97.4617 217.2162 0010750 175.1973 184.9362 15.10554077695513 GPM-CORE 1 39574U 14009C 26228.60240676 .00006711 00000+0 14890-3 0 9992 2 39574 64.9700 105.6588 0012094 250.8448 109.1384 15.44524677707146 SENTINEL-1A 1 39634U 14016A 26228.57110626 .00000043 00000+0 18596-4 0 9994 2 39634 98.1580 235.1728 0001395 83.4392 276.6967 14.59580687658828 KAZEOSAT 1 1 39731U 14024A 26228.59562494 .00000360 00000+0 12272-3 0 9993 2 39731 98.3170 299.5269 0001211 92.6193 267.5135 14.42047751647269 ALOS-2 1 39766U 14029A 26228.60294150 -.00000159 00000+0 -14400-4 0 9993 2 39766 97.9232 324.9036 0001496 91.5819 268.5564 14.79466783660514 KAZEOSAT 2 1 40010U 14033A 26228.58363003 .00000831 00000+0 10188-3 0 9996 2 40010 97.5379 65.0006 0009952 114.3338 245.8918 14.85533023657922 HODOYOSHI-4 1 40011U 14033B 26228.61485020 .00000958 00000+0 10874-3 0 9997 2 40011 97.5471 50.5331 0025105 103.8234 256.5779 14.88255879657794 DEIMOS-2 1 40013U 14033D 26228.60361418 .00001267 00000+0 12439-3 0 9995 2 40013 97.5731 100.9471 0002439 95.1130 265.0369 14.93865792646743 HODOYOSHI-3 1 40015U 14033F 26228.40617171 .00000575 00000+0 71988-4 0 9991 2 40015 97.6489 29.0509 0033460 153.9329 206.3580 14.85497975656569 SPOT 7 1 40053U 14034A 26228.58792104 .00000405 00000+0 91913-4 0 9995 2 40053 98.0582 289.5105 0001601 79.3679 280.7702 14.61002989645950 SKYSAT-B 1 40072U 14037D 26228.44005195 .00000699 00000+0 82603-4 0 9992 2 40072 98.3891 190.8621 0007017 83.8035 276.3979 14.88154309654924 WORLDVIEW-3 (WV-3) 1 40115U 14048A 26228.53834432 .00000407 00000+0 53842-4 0 9996 2 40115 97.8528 302.5287 0002872 104.5757 255.5776 14.85104200650864 GAOFEN-2 1 40118U 14049A 26228.64803694 .00000142 00000+0 25275-4 0 9993 2 40118 98.0065 292.7851 0008372 45.0143 315.1746 14.80964477648189 YAOGAN-21 1 40143U 14053A 26228.59060846 .00004974 00000+0 18974-3 0 9998 2 40143 97.1429 266.2524 0006309 229.6928 130.3761 15.27089932664170 YAOGAN-22 1 40275U 14063A 26228.41807170 -.00000038 00000+0 23822-4 0 9992 2 40275 100.7816 20.7148 0006765 58.4147 301.7624 13.15532480567731 ASNARO 1 40298U 14070A 26228.60810538 .00007242 00000+0 34163-3 0 9990 2 40298 97.3416 303.0877 0002366 358.9803 1.1427 15.19757447653184 YAOGAN-24 1 40310U 14072A 26228.61428737 .00000689 00000+0 10725-3 0 9990 2 40310 98.1576 6.4822 0015798 72.4655 287.8279 14.76152822632638 CBERS 4 1 40336U 14079A 26228.60789360 .00000365 00000+0 14138-3 0 9999 2 40336 98.3484 283.5302 0001117 122.0825 238.0470 14.35523944612628 YAOGAN-26 1 40362U 14088A 26228.61835750 .00012764 00000+0 23263-3 0 9999 2 40362 97.0668 227.5200 0004747 148.2843 211.8696 15.49577981647054 SMAP 1 40376U 15003A 26228.59265402 .00000184 00000+0 44783-4 0 9994 2 40376 98.1303 234.8380 0001368 92.2565 267.8794 14.63351456616454 KOMPSAT-3A 1 40536U 15014A 26228.58014218 .00021859 00000+0 28576-3 0 9993 2 40536 97.6917 224.5160 0049498 317.4379 42.3042 15.57161733631203 SENTINEL-2A 1 40697U 15028A 26228.63426488 .00000087 00000+0 49707-4 0 9998 2 40697 98.5653 302.6177 0001349 87.2509 272.8828 14.30821678582370 GAOFEN-8 1 40701U 15030A 26228.63096911 .00014338 00000+0 27619-3 0 9992 2 40701 97.6877 65.7221 0007618 347.0104 13.0948 15.47963544620799 CARBONITE 1 (CBNT-1) 1 40718U 15032D 26228.61037014 .00000477 00000+0 63743-4 0 9997 2 40718 97.6544 44.1661 0015958 95.1199 265.1838 14.83748708598309 YAOGAN-27 1 40878U 15040A 26228.61707142 .00000310 00000+0 92749-3 0 9992 2 40878 100.1214 212.3904 0009009 75.5059 284.7054 13.16074291525611 GAOFEN-9 01 1 40894U 15047A 26228.58776000 .00000452 00000+0 61683-4 0 9993 2 40894 97.6249 261.5319 0025907 303.7287 56.1459 14.82982219589147 YAOGAN-28 1 41026U 15064A 26228.57969053 .00004325 00000+0 16042-3 0 9992 2 41026 97.3157 5.6684 0009781 345.6024 14.4935 15.28091179599906 YAOGAN-29 1 41038U 15069A 26228.62830841 .00000092 00000+0 17875-4 0 9991 2 41038 98.0005 257.3512 0001834 136.1244 224.0115 14.83125557579582 KENT RIDGE 1 1 41167U 15077B 26228.07652141 .00002700 00000+0 78938-4 0 9992 2 41167 14.9788 180.4818 0008169 3.6386 356.3995 15.23438087590249 GAOFEN-4 1 41194U 15083A 26228.37093448 -.00000345 00000+0 00000+0 0 9995 2 41194 0.5081 83.7263 0003889 132.7033 347.5667 1.00272673 39133 JASON-3 1 41240U 16002A 26228.58525843 -.00000033 00000+0 11685-3 0 9990 2 41240 66.0441 358.8521 0008214 267.7373 92.2705 12.87626021495026 SENTINEL-3A 1 41335U 16011A 26228.59835203 .00000038 00000+0 33714-4 0 9992 2 41335 98.6207 295.1011 0001032 89.8854 270.2445 14.26737619546675 ZIYUAN 3-02 (ZY 3-02) 1 41556U 16033A 26228.63685828 .00003234 00000+0 14702-3 0 9998 2 41556 97.3799 303.2369 0014479 83.7168 276.5717 15.21364091567174 CARTOSAT-2C 1 41599U 16040A 26228.58981663 .00002263 00000+0 11064-3 0 9992 2 41599 97.4431 287.7206 0007675 285.0117 75.0267 15.19225524562881 SKYSAT-C1 1 41601U 16040C 26228.05627032 .00005625 00000+0 15656-3 0 9991 2 41601 96.9538 256.5587 0003641 132.5939 227.5614 15.37184121567062 LAPAN-A3 1 41603U 16040E 26228.62367491 .00001902 00000+0 61089-4 0 9992 2 41603 97.1537 222.8118 0010989 149.2149 210.9741 15.33438961564078 GAOFEN-3 1 41727U 16049A 26228.58147019 -.00000056 00000+0 -37570-5 0 9995 2 41727 98.4033 235.4618 0001399 64.6695 295.4639 14.42221641527354 SKYSAT-C4 1 41771U 16058B 26228.00428113 .00012122 00000+0 21547-3 0 9998 2 41771 96.9155 247.3403 0003553 76.7893 283.3756 15.50301585554737 SKYSAT-C5 1 41772U 16058C 26228.37238725 .00004642 00000+0 14302-3 0 9996 2 41772 97.0428 266.2812 0004302 92.9403 267.2334 15.34076899552973 SKYSAT-C2 1 41773U 16058D 26228.06354651 .00007757 00000+0 17618-3 0 9993 2 41773 97.0158 247.9527 0003569 151.1757 208.9689 15.43281600554286 SKYSAT-C3 1 41774U 16058E 26228.35910741 .00016884 00000+0 25358-3 0 9995 2 41774 96.8979 256.9831 0003378 98.1570 262.0068 15.54939153555451 ALSAT-1B 1 41785U 16059C 26228.59078120 .00000381 00000+0 67625-4 0 9999 2 41785 97.7770 234.7544 0010337 39.0387 321.1565 14.72314599529461 PATHFINDER 1 1 41787U 16059E 26228.47158058 .00000297 00000+0 60030-4 0 9996 2 41787 97.8204 225.0381 0028847 17.1031 343.1140 14.67725918528553 SCATSAT 1 1 41790U 16059H 26228.13109300 .00000630 00000+0 89245-4 0 9999 2 41790 98.1147 292.5041 0055562 55.8135 304.8325 14.79653771110452 GOKTURK 1A 1 41875U 16073A 26228.64574264 .00000012 00000+0 11591-4 0 9993 2 41875 98.1586 122.3696 0001464 86.6187 273.5182 14.62779520517660 RESOURCESAT-2A 1 41877U 16074A 26228.59962647 .00000498 00000+0 24709-3 0 9998 2 41877 98.7494 301.5997 0001019 256.9298 103.1765 14.21617630502883 CARTOSAT-2D 1 41948U 17008A 26228.62106991 .00003135 00000+0 15183-3 0 9998 2 41948 97.4058 286.7814 0005593 46.5560 313.6140 15.19275269526755 SENTINEL-2B 1 42063U 17013A 26228.62705940 .00000201 00000+0 93428-4 0 9992 2 42063 98.5660 302.5384 0001255 89.7643 270.3684 14.30822802493282 CARTOSAT-2E 1 42767U 17036C 26228.63913068 .00003362 00000+0 16285-3 0 9997 2 42767 97.4222 287.4286 0004537 98.0076 262.1673 15.19219526507325 FORMOSAT-5 1 42920U 17049A 26228.53358888 .00000050 00000+0 23836-4 0 9996 2 42920 98.2220 302.4924 0010211 255.9370 104.0691 14.50900398475424 SENTINEL-5P 1 42969U 17064A 26228.60818899 .00000012 00000+0 26831-4 0 9993 2 42969 98.7944 170.3154 0001310 85.0421 275.0904 14.19527484458132 SKYSAT-C11 1 42987U 17068A 26228.37552909 .00021300 00000+0 25594-3 0 9995 2 42987 97.4425 19.9930 0001812 115.2607 244.8838 15.60894709492627 SKYSAT-C10 1 42988U 17068B 26228.65135640 .00006172 00000+0 18075-3 0 9992 2 42988 97.4586 6.1587 0001719 98.6464 261.4975 15.35598842491631 SKYSAT-C9 1 42989U 17068C 26228.64445258 .00009010 00000+0 20730-3 0 9996 2 42989 97.4507 7.6809 0006502 277.7842 82.2667 15.42861878492079 SKYSAT-C8 1 42990U 17068D 26228.33404130 .00006954 00000+0 18822-3 0 9991 2 42990 97.4603 5.8705 0001565 104.7067 255.4351 15.38014153491552 SKYSAT-C7 1 42991U 17068E 26228.32967072 .00006906 00000+0 18725-3 0 9999 2 42991 97.4614 6.8599 0004374 242.8188 117.2612 15.37954631491611 SKYSAT-C6 1 42992U 17068F 26228.34836837 .00005710 00000+0 17540-3 0 9992 2 42992 97.4652 6.5748 0001505 36.1417 323.9927 15.34123121491545 CARTOSAT-2F 1 43111U 18004A 26228.60651962 .00002645 00000+0 12882-3 0 9998 2 43111 97.4738 287.6348 0002697 73.9029 286.2503 15.19228851476502 GAOFEN-1 02 1 43259U 18031A 26228.61467176 .00000933 00000+0 14151-3 0 9993 2 43259 98.0480 290.9579 0003149 149.8372 210.3019 14.76451916451613 GAOFEN-1 03 1 43260U 18031B 26228.59265012 .00000351 00000+0 57854-4 0 9999 2 43260 98.0475 290.7871 0001741 201.3202 158.7936 14.76453339451607 GAOFEN-1 04 1 43262U 18031D 26228.63608098 .00000488 00000+0 77561-4 0 9999 2 43262 98.0482 291.0297 0000957 126.8693 233.2605 14.76447060451602 SENTINEL-3B 1 43437U 18039A 26228.22084083 .00000046 00000+0 36943-4 0 9997 2 43437 98.6207 294.8787 0001658 101.0780 259.0587 14.26737583432682 GAOFEN-5 01 1 43461U 18043A 26228.41395780 .00000157 00000+0 42364-4 0 9996 2 43461 98.4633 201.2848 0000576 219.8081 140.3077 14.60640684440486 GAOFEN-6 1 43484U 18048A 26228.59204567 .00000273 00000+0 46865-4 0 9996 2 43484 98.0924 291.3648 0010322 344.3334 15.7554 14.76413599442301 GAOFEN-11 01 1 43585U 18063A 26228.61991015 .00014750 00000+0 20631-3 0 9996 2 43585 97.1236 295.3818 0005485 103.3241 256.8627 15.56904389449741 ICESAT-2 1 43613U 18070A 26228.52683123 .00005610 00000+0 20379-3 0 9998 2 43613 92.0071 307.2854 0001552 168.7813 191.3471 15.28266460441672 HYSIS 1 43719U 18096A 26228.64114322 .00000823 00000+0 11944-3 0 9995 2 43719 97.9798 294.9015 0001011 77.8264 282.3060 14.78662399416357 KAZSTSAT 1 43783U 18099AB 26228.33756743 .00000322 00000+0 30409-4 0 9996 2 43783 97.4237 257.5482 0009593 209.6161 150.4521 14.99974949420327 SAUDISAT 5A 1 43831U 18102A 26228.59630705 .00003235 00000+0 11896-3 0 9996 2 43831 97.3015 289.0193 0007666 281.0530 78.9848 15.28580402424900 SAUDISAT 5B 1 43833U 18102C 26228.60557514 .00003060 00000+0 11187-3 0 9995 2 43833 97.3126 292.2075 0008404 283.6403 76.3901 15.28809627425027 GAOFEN-10R 1 44622U 19066A 26228.60590921 .00000593 00000+0 79533-4 0 9999 2 44622 98.0539 182.6397 0004455 309.9029 50.1792 14.83113851371336 CARTOSAT-3 1 44804U 19081A 26228.61987773 .00002135 00000+0 10454-3 0 9994 2 44804 97.4255 289.4986 0010686 308.0397 51.9872 15.19204700372644 GAOFEN-12 01 1 44819U 19082A 26228.63757472 .00000174 00000+0 29304-4 0 9990 2 44819 97.8137 233.4302 0001524 126.0705 234.0648 14.80499791363037 CSG-1 1 44873U 19092A 26228.60831174 .00000172 00000+0 28168-4 0 9995 2 44873 97.8911 51.3448 0001488 88.3094 271.8289 14.82149161360420 NEMO-HD 1 46277U 20061F 26228.61579328 .00007135 00000+0 14968-3 0 9992 2 46277 97.1865 289.9896 0002289 121.0172 239.1303 15.45686950331311 SENTINEL-6A 1 46984U 20086A 26228.43817121 -.00000071 00000+0 -45200-4 0 9998 2 46984 66.0420 9.9078 0007745 269.1204 90.8923 12.80930316268045 CAS500-1 1 47932U 21022A 26228.62181111 .00003525 00000+0 16608-3 0 9991 2 47932 97.3807 122.6235 0007099 79.4018 280.8017 15.20139243299945 GAOFEN-12 02 1 48079U 21026A 26228.58754654 .00000162 00000+0 28217-4 0 9995 2 48079 97.9965 226.5340 0005911 50.7028 309.4707 14.80335905290699 PLEIADES NEO 3 1 48268U 21034A 26228.62717647 .00000206 00000+0 32850-4 0 9997 2 48268 97.8946 302.5248 0001485 94.0713 266.0669 14.81673205286603 PLEIADES NEO 4 1 49070U 21073E 26228.59339767 .00000384 00000+0 55381-4 0 9992 2 49070 97.8947 302.4873 0001460 101.1940 258.9437 14.81673855270319 LANDSAT 9 1 49260U 21088A 26228.21400334 .00000171 00000+0 47953-4 0 9997 2 49260 98.2241 297.6520 0001295 106.0224 254.1117 14.57112876259742 CSG-2 1 51444U 22008A 26228.57454225 -.00000479 00000+0 -53595-4 0 9996 2 51444 97.8904 51.3041 0001501 82.1123 278.0260 14.82147547245532 GAOFEN-12 03 1 52912U 22069A 26228.62736427 -.00000148 00000+0 -12926-4 0 9993 2 52912 97.8182 114.9497 0001226 45.2854 314.8458 14.80113205223555 SWOT 1 54754U 22173A 26228.58143699 .00000032 00000+0 23352-4 0 9998 2 54754 77.6122 313.7833 0000022 256.2284 103.8865 14.00171655187606 GAOFEN-12 04 1 57654U 23123A 26228.58589020 .00000486 00000+0 71394-4 0 9990 2 57654 97.9075 145.6881 0001100 311.6884 48.4233 14.79822291161560 PARS 1 1 59065U 24039Q 26228.62565666 .00007501 00000+0 15106-3 0 9993 2 59065 97.4882 211.5213 0006980 250.5793 109.4702 15.46865496137989 RESURS-P 4 1 59371U 24061A 26228.60412856 .00001768 00000+0 58900-4 0 9997 2 59371 97.2781 175.4739 0001798 48.1844 311.9551 15.32432536133018 LEGION 1 1 59625U 24081A 26228.52156044 .00002130 00000+0 11103-3 0 9993 2 59625 97.4985 305.7386 0010119 150.3667 209.8142 15.17023600126687 LEGION 2 1 59626U 24081B 26228.48638648 .00002495 00000+0 12943-3 0 9991 2 59626 97.4983 305.8000 0012862 123.2172 237.0297 15.17006960126681 ALOS-4 (DAICHI-4) 1 60182U 24123A 26228.55466509 .00000739 00000+0 10589-3 0 9993 2 60182 97.9221 324.8628 0001546 99.1020 261.0367 14.79472262114802 LEGION 3 1 60452U 24146A 26228.63012776 .00002486 00000+0 14132-3 0 9999 2 60452 45.0017 66.5086 0007505 175.9429 184.1512 15.15843302111198 LEGION 4 1 60453U 24146B 26228.49749711 .00002278 00000+0 13057-3 0 9994 2 60453 45.0014 159.0823 0010966 291.1108 68.8598 15.15860181110020 SENTINEL-2C 1 60989U 24157A 26228.17252649 .00000051 00000+0 36261-4 0 9994 2 60989 98.5659 302.0952 0001400 105.4971 254.6366 14.30822471101566 IONOSFERA-M 1 1 61735U 24199A 26228.60354592 .00000009 00000+0 23450-4 0 9997 2 61735 98.7079 101.1134 0001141 30.1080 330.0164 14.22763953136294 IONOSFERA-M 2 1 61736U 24199B 26228.63770618 .00000022 00000+0 29377-4 0 9991 2 61736 98.7077 101.0573 0001713 110.8188 249.3174 14.22767247139420 PRSC-EO1 1 62725U 25012A 26228.65236867 .00003893 00000+0 19671-3 0 9994 2 62725 97.4182 299.9150 0006889 65.5642 294.6310 15.17636278 87364 BIOMASS 1 63772U 25090A 26228.24118411 .00000592 00000+0 11287-3 0 9990 2 63772 98.0761 54.6908 0001401 86.3700 273.7665 14.67536585 69494 GOSAT-GW (IBUKI GW) 1 64694U 25141A 26228.59892137 .00000322 00000+0 65228-4 0 9999 2 64694 98.0575 164.9351 0001424 85.2097 274.9270 14.67552716 60704 IONOSFERA-M 3 1 64876U 25155A 26228.56877079 .00000003 00000+0 20950-4 0 9990 2 64876 98.6084 188.9686 0002379 63.3052 296.8369 14.21495127 54989 IONOSFERA-M 4 1 64877U 25155B 26228.60350738 .00000001 00000+0 19864-4 0 9994 2 64877 98.6083 188.9193 0001737 65.9197 294.2162 14.21497645 54987 MICROCARB 1 64899U 25156A 26228.20785250 .00000289 00000+0 52821-4 0 9994 2 64899 98.0050 304.4552 0018681 74.5086 285.8183 14.72913695 56808 CO3D 3 1 64900U 25156B 26227.88889924 .00002372 00000+0 11267-3 0 9996 2 64900 97.4339 305.7238 0000903 79.2389 280.8947 15.20206946 58606 CO3D 4 1 64901U 25156C 26227.49410604 .00002285 00000+0 10858-3 0 9997 2 64901 97.4337 305.3347 0002637 98.2663 261.8871 15.20217100 58546 CO3D 2 1 64902U 25156D 26228.51393689 .00002473 00000+0 11734-3 0 9998 2 64902 97.4340 306.2386 0001021 110.8206 249.3138 15.20201745 58695 CO3D 1 1 64903U 25156E 26228.51408741 .00002594 00000+0 12293-3 0 9990 2 64903 97.4341 306.2388 0001160 97.8625 262.2742 15.20197420 58691 PRSC-S1 1 65055U 25164A 26228.65221690 .00002477 00000+0 17482-3 0 9994 2 65055 41.1310 307.1625 0005762 36.1539 323.9664 15.06869110 57556 SENTINEL-6B 1 66514U 25264A 26228.43851851 -.00000074 00000+0 -54674-4 0 9998 2 66514 66.0433 10.0329 0007785 267.7544 92.2580 12.80930417 34887 CAS500-3 1 66655U 25274F 26228.52025328 .00000658 00000+0 77064-4 0 9991 2 66655 97.7418 155.1931 0005538 48.7373 311.4320 14.88266764 39125 CSG-3 1 67304U 26001A 26228.41842510 .00000122 00000+0 21928-4 0 9994 2 67304 97.8912 51.1567 0001461 87.1903 272.9477 14.82149481 33380 PRSC-E03 1 68835U 26092A 26228.62574346 .00001465 00000+0 10341-3 0 9993 2 68835 38.0009 93.2079 0003235 158.6909 201.3988 15.06925891 17075 CAS500-2 1 69013U 26100AK 26228.43487401 .00003576 00000+0 16705-3 0 9991 2 69013 97.3803 125.0843 0010046 143.8687 216.3229 15.20404709 15960